User: anonymous   Login
Location: Unspecified
(0.0000°N, 0.0000°E)
Time: 09:39:40
(UTC+00:00)
Language:

KAITUO 1B - Orbit

View from above orbital plane
View from above orbital plane
View from above satellite
View from above satellite

Ground track
Ground track

The orbit data is extracted from the following two-line orbital elements,

1 40912U 15049P   19018.09339388  .00000723  00000-0  37508-4 0  9996
2 40912  97.4513  27.4475 0015044 348.5627  52.0859 15.19244781184290
Epoch (UTC): 18 January 2019 02:14:29
Eccentricity: 0.0015044
inclination: 97.4513°
perigee height: 498 km
apogee height: 518 km
right ascension of ascending node: 27.4475°
argument of perigee: 348.5627°
revolutions per day: 15.19244781
mean anomaly at epoch: 52.0859°
orbit number at epoch: 18429

The dashed part of the orbit path shows where the satellite is in the earth's shadow,  

DLR